Other Public Products
Issued by NWS Grand Forks, ND

Home | Current Version | Previous Version | Graphics & Text | Print | Product List | Glossary On
Versions: 1 2 3 4 5 6 7 8 9 10 11 12 13 14 15 16 17 18 19 20 21 22 23 24 25 26 27 28 29 30 31 32 33 34 35 36 37 38 39 40 41 42 43 44 45 46 47 48 49 50
000
FPUS83 KFGF 261331
OPUFGF
PRAIRIE TO PINES WEATHER ROUNDUP
NATIONAL WEATHER SERVICE EASTERN NORTH DAKOTA/GRAND FORKS ND
800 AM CDT WED JUL 26 2017

 **SATELLITE DATA USED TO AUGMENT SKY COVER AT AUTOMATED STATIONS**
 *****  WEATHER ACROSS EASTERN NORTH DAKOTA  *****

CITY           SKY/WX    TMP DP  RH WIND       PRES   REMARKS
GRAND FORKS    FAIR      67  61  81 NW12      30.01R
GRAND FORKS AF FAIR      67  60  78 N9        30.02R
GRAND CITY NWS NOT AVBL
BUXTON           N/A     69  65  86 NW8         N/A
DEVILS LAKE    FAIR      65  59  81 NW12      30.08R
FARGO          FAIR      68  59  73 NW6       30.02R
WAHPETON ARPT  FAIR      66  61  82 CALM      30.04R
$$

 *****  WEATHER ACROSS CENTRAL AND WESTERN NORTH DAKOTA  *****

CITY           SKY/WX    TMP DP  RH WIND       PRES   REMARKS
JAMESTOWN      FAIR      67  58  72 NW7       30.06R
BISMARCK       FAIR      67  57  70 W5        30.10R
MINOT          FAIR      66  55  67 W6        30.12R
MINOT AFB      FAIR      62  57  84 NW6       30.11R
GARRISON         N/A     62  57  83 N6        30.12R
WILLISTON      FAIR      61  50  67 NE6       30.15R
DICKINSON      FAIR      65  52  62 E6        30.13R
HETTINGER      PTSUNNY   67  56  67 CALM      30.15R
$$

 *****  OTHER OBSERVATIONS NORTHEAST NORTH DAKOTA  *****

CITY           SKY/WX    TMP DP  RH WIND       PRES   REMARKS
WALHALLA       NOT AVBL
LANGDON        FAIR      61  61 100 NW12      30.07R
CAVALIER       FAIR      66  61  82 NW10      30.02R
GRAFTON        FAIR      66  61  82 NW9       30.04R
CANDO          NOT AVBL
FORT TOTTEN      N/A     65  60  85 NW3       29.95S
ROLLA            N/A     64  61  88 NW14      30.11R
RUGBY          NOT AVBL
 ***** THE ABOVE OBSERVATIONS ARE NON NWS ARE NOT QUALITY
        CONTROLLED AND MAY MIS-REPORT RAIN FOR SNOW...
$$

 *****  OTHER OBSERVATIONS SOUTHEAST NORTH DAKOTA *****

CITY           SKY/WX    TMP DP  RH WIND       PRES   REMARKS
COOPERSTOWN    FAIR      68  61  77 N13       30.06S
VALLEY CITY    FAIR      68  63  83 N9        30.07S
OAKES          NOT AVBL
GWINNER        SUNNY     70  63  78 CALM      30.05R
SHEYENNE NWR     N/A     67  62  85 CALM      29.95S
BUFFALO          N/A     67  60  78 SE5         N/A
WYNDMERE       NOT AVBL
 ***** THE ABOVE OBSERVATIONS ARE NON NWS ARE NOT QUALITY
       CONTROLLED AND MAY MIS-REPORT RAIN FOR SNOW...
$$

  *****  WEATHER ACROSS NORTHERN MINNESOTA  *****

CITY           SKY/WX    TMP DP  RH WIND       PRES   REMARKS
FLAG ISLAND    FAIR      64  61  88 NW13      29.95S
WARROAD        FAIR      64  61  88 NW8       29.98S
ROSEAU         FAIR      64  59  82 NW8       29.99S
HALLOCK        FAIR      64  63  94 NW7       30.01R
THF RVR FALLS  FAIR      64  59  83 NW12      30.01S
HALSTAD          N/A     67  61  80 N8          N/A
FOSSTON        FAIR      64  57  77 NW8       30.02R
BAUDETTE       FAIR      64  59  83 W12       29.96R
WASKISH        FAIR      66  61  82 NW8       29.98R
CROOKSTON      FAIR      64  61  88 N10       30.02R
$$
  *****  WEATHER ACROSS CENTRAL AND WEST MINNESOTA  *****

CITY           SKY/WX    TMP DP  RH WIND       PRES   REMARKS
BEMIDJI        FAIR      66  59  78 NW6       30.00S
PARK RAPIDS    FAIR      67  60  78 CALM      30.02R
WADENA         FAIR      66  59  77 CALM      30.02S
DETROIT LAKES  FAIR      66  57  72 NW5       30.04R
MOORHEAD       FAIR      66  61  82 CALM      30.03R
FERGUS FALLS   FAIR      70  61  73 CALM      30.03R
ELBOW LAKE     FAIR      69  62  78 CALM      30.04R
MORRIS MN      FAIR      70  64  83 NE3       30.02R
STAPLES        FAIR      64  57  77 CALM      30.02R
WHEATON        FAIR      70  63  78 CALM      30.05R
$$
  *****  WEATHER ELSEWHERE ACROSS MINNESOTA  *****

CITY           SKY/WX    TMP DP  RH WIND       PRES   REMARKS
DULUTH         FAIR      67  64  90 SW6       30.00R
INTRNTL FALLS  FAIR      66  61  84 NW9       29.95R
ELY            FAIR      66  57  72 W3        29.98R
CLOQUET        FAIR      70  63  78 NW5       30.00S
BRAINERD       FAIR      67  60  78 N6        30.00S
HIBBING        FAIR      64  61  90 CALM      30.00R
ALEXANDRIA     FAIR      69  63  81 CALM      30.05R
SAINT CLOUD    PTSUNNY   69  69 100 NW3       30.02R
MINNEAPOLIS    LGT RAIN  72  68  87 S7        30.01R
$$

  *****  WEATHER ACROSS SOUTH DAKOTA  *****

CITY           SKY/WX    TMP DP  RH WIND       PRES   REMARKS
SIOUX FALLS    CLOUDY    73  71  93 NE5       30.01S
BROOKINGS      CLOUDY    71  68  90 E10       30.03S
WATERTOWN      PTSUNNY   68  64  87 N8        30.04R
HURON          FAIR      73  70  90 NE9       30.01R
SISSETON         N/A     69  65  86 NW3       30.02S
ABERDEEN       FAIR      70  63  78 NE8       30.05R
MITCHELL       FAIR      72  70  93 SE8       29.99S
PIERRE         FAIR      71  67  87 NE10      30.02R
MOBRIDGE       FAIR      71  62  73 N5        30.05R
RAPID CITY     CLOUDY    71  48  43 NW8       30.14R
$$

  *****  SOME WEATHER IN NEARBY STATES *****

CITY           SKY/WX    TMP DP  RH WIND       PRES   REMARKS
GLASGOW MT     FAIR      61  49  64 S5        30.13R
GREAT FALLS MT FAIR      56  39  53 SW5       30.14S
CHEYENNE WY    LGT RAIN  60  58  92 N7        30.29R FOG
SCOTTSBLUFF NE CLOUDY    69  56  62 N8        30.17R
OMAHA NE       LGT RAIN  74  71  91 SE10      29.98S
DES MOINES IA  CLOUDY    75  69  81 S9        29.98F
DAVENPORT IA   FAIR      74  68  81 S10       30.07R
CHICAGO IL     CLOUDY    72  61  68 S7        30.08F
EAU CLAIRE WI  LGT RAIN  70  70 100 CALM      29.99F
LA CROSSE WI   PTSUNNY   78  70  76 CALM      30.01F
$$

  *****  SOME NATIONAL WEATHER *****

CITY           SKY/WX    TMP DP  RH WIND       PRES   REMARKS
LA GUARDIA NY  FAIR      69  59  70 NE7       30.25R
RALEIGH NC     FAIR      76  65  68 E9        30.19R
ATLANTA GA     FAIR      81  72  74 N3        30.15R
NEW ORLEANS LA PTSUNNY   82  78  88 NW6       30.13S HX  91
OKLAHOMA CITY  FAIR      78  69  73 S12       30.03S
ALBUQUERQUE NM FAIR      71  57  61 CALM      30.26R
SALT LAKE CITY CLOUDY    67  64  90 SW5       30.19R
LOS ANGELES CA MOCLDY    67  63  87 W6        30.00S
BOISE ID       MOCLDY    76  53  44 SE7       30.05R
SEATTLE WA     FAIR      56  53  90 W5        30.08R
$$

*** WEATHER ACROSS MANITOBA...SASKATCHEWAN AND ONTARIO ***
                ***ONTARIO***

CITY           SKY/WX    TMP DP  RH WIND       PRES   REMARKS
GERALDTON      MOSUNNY   66  57  72 W9G20     29.78S
THUNDER BAY    MOSUNNY   70  59  68 W7        29.88R
SIOUX LOOKOUT  MOSUNNY   66  59  77 W12G17    29.87S
TORONTO        PTSUNNY   66  57  72 S6        30.19F
BIG TROUT LK   LGT RAIN  59  59 100 NW15G23   29.63R
PICKLE LAKE    PTSUNNY   64  55  72 W15       29.75
DRYDEN         SUNNY     64  57  77 W12G18    29.91S
KENORA         MOSUNNY   64  59  82 NW10      29.95
$$
                *** MANITOBA***

CITY           SKY/WX    TMP DP  RH WIND       PRES   REMARKS
BRANDON        SUNNY     61  59  94 NW8       30.08R
DAUPHIN        SUNNY     63  59  88 W7        30.05R
ISLAND LAKE    PTSUNNY   64  59  82 NW9       29.84
PILOT MOUND      N/A     61  57  88 NW8         N/A
THE PAS        MOSUNNY   64  55  72 W10       29.99R
THOMPSON       SUNNY     64  57  77 NW5       29.90R
WINNIPEG       SUNNY     64  63  94 NW8       30.01
LYNN LAKE      SUNNY     61  57  88 NW2       29.95R
CHURCHILL      PTSUNNY   54  54 100 N16       29.80R
$$
                ***SASKATCHEWAN***

CITY           SKY/WX    TMP DP  RH WIND       PRES   REMARKS
ESTEVAN        SUNNY     59  55  88 W2        30.15R
KINDERSLEY     SUNNY     54  52  94 SE5       30.11S
LLOYDMINSTER   MOSUNNY   57  52  82 SW8       30.09S
PRINCE ALBERT  PTSUNNY   57  55  94 W2        30.11R
REGINA         SUNNY     59  52  77 S2        30.15R
YORKTON        SUNNY     63  57  82 NW7       30.11R
N. BATTLEFORD  SUNNY     55  54  94 CALM      30.14R



USA.gov is the U.S. government's official web portal to all federal, state and local government web resources and services.